EW8749 Weather Reports


time (UTC)temp
F
wind
direction
speed
knots
gust
knots
rain 1hr
in
rain 24hr
in
rain mn
in
humidity
%
barometer
mb
20260508074527 48 232 1.7 8.7 0.00 0.01 0.01 82 1022.6
20260508073024 49 217 1.7 9.6 0.00 0.01 0.01 81 1022.4
20260508071525 49 267 2.6 11.3 0.00 0.01 0.01 80 1022.0
20260508070023 50 265 5.2 13.0 0.00 0.01 0.01 79 1021.8
20260508064546 51 229 3.5 10.4 0.00 0.01 0.01 78 1021.6
20260508063027 51 261 6.1 15.6 0.00 0.01 0.01 76 1021.5
20260508061521 52 236 3.5 10.4 0.00 0.01 0.01 75 1021.2
20260508060024 52 228 4.3 13.0 0.00 0.01 0.01 75 1021.1
20260508054534 52 237 4.3 12.2 0.00 0.01 0.01 74 1021.0
20260508053019 53 265 6.1 15.6 0.00 0.01 0.01 73 1020.9
20260508050025 54 267 5.2 13.0 0.00 0.01 0.01 70 1020.7
20260508044513 53 219 5.2 13.9 0.00 0.01 0.01 73 1020.7
20260508043013 53 238 5.2 12.2 0.00 0.01 0.01 75 1020.4
20260508041508 52 239 6.1 18.2 0.00 0.01 0.01 76 1020.2
20260508040005 52 228 5.2 13.9 0.00 0.01 0.01 77 1020.0
20260508034511 52 238 7.0 13.9 0.00 0.01 0.01 77 1020.2
20260508033003 51 254 6.1 13.0 0.00 0.01 0.01 78 1020.1
20260508031607 51 268 3.5 13.9 0.01 0.01 0.01 79 1020.6
20260508030105 51 268 7.0 16.5 0.01 0.01 0.01 78 1020.7
20260508024555 50 251 6.1 17.4 0.01 0.01 0.01 79 1020.6
20260508023052 50 253 6.1 20.9 0.01 0.01 0.01 79 1020.4
20260508021551 49 259 7.8 15.6 0.00 0.00 0.00 79 1020.8
20260508020050 49 235 8.7 20.0 0.00 0.00 0.00 80 1020.7
20260508014545 49 263 8.7 20.9 0.00 0.00 0.00 80 1021.1
20260508013043 48 253 7.8 14.8 0.00 0.00 0.00 80 1021.6
20260508011545 48 240 7.8 20.0 0.00 0.00 0.00 80 1021.7
20260508010040 48 278 7.8 16.5 0.00 0.00 0.00 81 1021.8
20260508004540 47 245 7.8 18.2 0.00 0.00 0.00 82 1022.0
20260508003035 47 213 4.3 13.9 0.00 0.00 0.00 84 1021.9
20260508001534 45 255 3.5 13.0 0.00 0.00 0.00 85 1022.2
20260508000030 45 213 3.5 12.2 0.00 0.00 0.00 85 1022.3
20260507234533 45 322 5.2 14.8 0.00 0.00 0.00 85 1022.2
20260507233033 44 292 3.5 9.6 0.00 0.00 0.00 86 1022.2
20260507231523 44 284 4.3 9.6 0.00 0.00 0.00 87 1022.1
20260507224522 43 18 1.7 7.8 0.00 0.00 0.00 89 1022.0
20260507223017 42 349 4.3 12.2 0.00 0.00 0.00 89 1021.5
20260507221518 42 337 1.7 12.2 0.00 0.00 0.00 89 1021.6
20260507220014 42 301 4.3 13.0 0.00 0.00 0.00 89 1021.0